VE3MNX Weather Reports


time (UTC)temp
C
wind
direction
speed
KPH
gust
KPH
rain 1hr
cm
rain 24hr
cm
rain mn
cm
humidity
%
barometer
mb
20260903072402 21 270 0.0 0.0 0.00 1.32 1.32 99 1011.2
20260903070900 21 270 0.0 0.0 0.00 1.32 1.32 99 1011.5
20260903065401 20 257 3.2 4.8 0.00 1.32 1.32 99 1010.5
20260903063901 20 291 0.0 0.0 0.00 1.32 1.32 99 1010.8
20260903060859 20 295 0.0 1.6 0.03 1.32 1.32 99 1011.9
20260903055400 20 295 1.6 3.2 0.03 1.32 1.32 99 1011.9
20260903053859 20 278 3.2 4.8 0.03 1.32 1.32 99 1011.9
20260903052400 20 292 8.0 9.7 0.15 1.32 1.32 99 1012.2
20260903050901 20 292 8.0 9.7 1.30 1.30 1.30 99 1012.5
20260903045404 20 300 11.3 12.9 1.30 1.30 1.30 99 1012.9
20260903043902 20 290 3.2 4.8 1.30 1.30 1.30 99 1012.1
20260903042405 20 297 8.0 16.1 1.17 1.17 1.17 98 1012.9
20260903040901 23 306 14.5 27.4 0.00 0.00 0.00 87 1013.0
20260903033901 23 336 3.2 9.7 0.00 0.00 0.00 88 1011.2
20260903032401 25 324 3.2 4.8 0.00 0.00 0.00 90 1010.2
20260903030901 25 230 8.0 9.7 0.00 0.00 0.00 92 1010.2
20260903025406 25 225 9.7 12.9 0.00 0.00 0.00 93 1009.8
20260903022401 27 221 4.8 11.3 0.00 0.00 0.00 86 1010.2
20260903020901 27 221 4.8 11.3 0.00 0.00 0.00 84 1010.5
20260903015403 27 226 8.0 9.7 0.00 0.00 0.00 82 1010.2
20260903013902 27 211 1.6 8.0 0.00 0.00 0.00 83 1010.2
20260903012403 26 177 3.2 4.8 0.00 0.00 0.00 83 1010.5
20260903010901 26 220 4.8 9.7 0.00 0.00 0.00 88 1010.8
20260903005402 26 251 11.3 16.1 0.00 0.00 0.00 86 1010.2
20260903003901 26 258 11.3 16.1 0.00 0.00 0.00 84 1010.2
20260903002402 27 267 11.3 19.3 0.00 0.00 0.00 85 1009.8
20260903000900 27 255 11.3 20.9 0.00 0.00 0.00 83 1010.2
20260902235402 27 250 11.3 22.5 0.00 0.00 0.00 82 1010.5
20260902233902 27 244 14.5 24.1 0.00 0.00 0.00 83 1010.2
20260902232402 27 246 20.9 22.5 0.00 0.00 0.00 83 1010.2
20260902230901 28 243 16.1 20.9 0.00 0.00 0.00 83 1010.2
20260902225401 28 280 14.5 25.7 0.00 0.00 0.00 82 1009.8
20260902223901 28 242 20.9 24.1 0.00 0.00 0.00 83 1010.2
20260902222405 28 239 14.5 20.9 0.00 0.00 0.00 85 1010.2
20260902220902 28 253 12.9 24.1 0.00 0.00 0.00 84 1010.2
20260902215403 28 278 12.9 20.9 0.00 0.00 0.00 85 1010.2
20260902213901 28 242 16.1 22.5 0.00 0.00 0.00 86 1010.5
20260902212401 28 254 14.5 20.9 0.00 0.00 0.00 86 1010.2
20260902210901 27 250 12.9 19.3 0.00 0.00 0.00 88 1010.2
20260902205401 27 238 12.9 16.1 0.00 0.00 0.00 89 1010.5
20260902203900 27 222 11.3 14.5 0.00 0.00 0.00 90 1010.8
20260902202402 27 215 12.9 22.5 0.00 0.00 0.00 88 1010.8
20260902200901 27 277 14.5 20.9 0.00 0.00 0.00 90 1011.2
20260902195402 27 266 16.1 24.1 0.00 0.00 0.00 89 1011.2
20260902193901 27 228 16.1 22.5 0.00 0.00 0.00 88 1011.4
20260902192403 27 252 16.1 19.3 0.00 0.00 0.00 87 1011.9
20260902190902 27 250 16.1 22.5 0.00 0.00 0.00 88 1011.9
20260902185402 27 235 14.5 19.3 0.00 0.00 0.00 87 1011.9
20260902183902 27 267 11.3 16.1 0.00 0.00 0.00 87 1011.9
20260902182406 27 269 14.5 20.9 0.00 0.00 0.00 88 1011.9
20260902180905 27 236 16.1 22.5 0.00 0.00 0.00 88 1011.9
20260902175404 27 249 16.1 24.1 0.00 0.00 0.00 88 1011.9
20260902173903 27 257 14.5 19.3 0.00 0.00 0.00 88 1012.5
20260902172402 27 230 11.3 16.1 0.00 0.00 0.00 91 1012.9
20260902170902 26 229 11.3 14.5 0.00 0.00 0.00 92 1012.9
20260902165400 26 244 11.3 11.3 0.00 0.00 0.00 92 1012.9
20260902163901 26 246 8.0 14.5 0.00 0.00 0.00 94 1013.2
20260902162401 26 235 9.7 11.3 0.00 0.00 0.00 93 1013.5
20260902160900 25 234 11.3 12.9 0.00 0.00 0.00 94 1013.2
20260902155401 26 244 12.9 16.1 0.00 0.00 0.00 92 1013.5
20260902153902 26 221 11.3 14.5 0.00 0.00 0.00 93 1013.5
20260902152400 26 249 14.5 19.3 0.00 0.00 0.00 94 1013.4
20260902150900 26 242 11.3 16.1 0.00 0.00 0.00 93 1013.3
20260902145401 26 249 11.3 14.5 0.00 0.00 0.00 92 1013.5
20260902143900 26 232 11.3 14.5 0.00 0.00 0.00 92 1013.2
20260902142401 27 221 4.8 9.7 0.00 0.00 0.00 92 1013.2
20260902140904 26 233 9.7 11.3 0.00 0.00 0.00 93 1013.2
20260902135400 26 234 9.7 12.9 0.00 0.00 0.00 93 1012.9
20260902133900 26 246 3.2 9.7 0.00 0.00 0.00 92 1012.9
20260902132402 27 239 8.0 9.7 0.00 0.00 0.00 91 1012.9
20260902130901 26 276 8.0 9.7 0.00 0.00 0.00 92 1012.5
20260902125403 26 264 4.8 4.8 0.00 0.00 0.00 94 1012.5
20260902123901 26 270 4.8 8.0 0.00 0.00 0.00 95 1012.5
20260902122400 25 258 1.6 4.8 0.00 0.00 0.00 97 1012.5
20260902120901 24 258 1.6 4.8 0.00 0.00 0.00 99 1012.5
20260902115401 24 261 3.2 3.2 0.00 0.00 0.00 99 1012.5
20260902113900 24 264 3.2 4.8 0.00 0.00 0.00 99 1012.5
20260902112401 23 254 4.8 8.0 0.00 0.00 0.00 99 1012.5
20260902110902 23 260 3.2 4.8 0.00 0.00 0.00 99 1012.3
20260902105401 23 266 9.7 16.1 0.00 0.00 0.00 99 1012.2